COSMOS 2251 DEB, 35071

Orbit data source: Space-Track

COSMOS 2251 DEB, 35071 is space debris in LEO originally from a launch on Wed, 16 Jun 1993 UTC launched from the Plesetsk Missile And Space Complex (PKMTR). The debris from Iridium 33, an American commercial communications satellite, has been tracked extensively since its accidental collision with the defunct Russian satellite Cosmos 2251 in 2009. This event, occurring at high speed in low Earth orbit (LEO), generated thousands of pieces of space debris, significantly increasing the risk of further collisions. The Iridium 33 debris cloud has impacted space traffic management and orbital debris mitigation strategies, making it a subject of ongoing study in space situational awareness.

Loading next visibility...
Identifier
35071, 1993-036AJA
Orbit
LEO
Country
Flag of CISCIS
Related business
Manufacturer
Unknown
Mission
Spacecraft
Bus & Motor
Unknown
Mass
Unknown
Launch date (UTC)
1993-06-16 (33 years ago)
Launch vehicle
Unknown
Launch site
Plesetsk Missile And Space Complex (PKMTR)
Object type
Payload
Rocket body
Debris
Shape & HBR
Unknown shape, 0.1 m
Radar Cross Section
Small (<0.1 m²)

Expand to show TLE details & history
Last TLE update: 5 days ago

TLE from 5 days ago
0 COSMOS 2251 DEB
1 35071U 93036AJA 26233.67715705  .00011376  00000-0  69255-3 0  9999
2 35071  73.9321  12.9376 0062494 208.3950 151.3832 15.08815232713305
Epoch: 2026-08-21T16:15Z
TLE epoch observation values (Epoch: 2026-08-21T16:15:06.369Z)
Latitude
0.00001°
Longitude
159.16258°
Altitude
580.532 km
Speed
7.55 km/s
True Right ascension
00h 51m 45s
True Declination
0° 00' 00"
Sunlit
Object was in full shadow at epoch
Visualization orbit readout
Latitude
Unknown
Longitude
Unknown
Altitude
Unknown
Speed
Unknown
Apparent Right ascension
Unknown
Apparent Declination
Unknown
Sunlit
N/A
Visualization observer readout
Local Sidereal Time
23:46:24
Azimuth
Unknown
Elevation
Unknown
Doppler factor
Unknown
Orbital elements
Apogee altitude
580.59 km
Perigee altitude
494.154 km
Semi-major axis
6,915.509 km
Eccentricity
0.00625
Inclination
73.9321°
RAAN
12.9376°
Arg. of periapsis
208.395°
True anomaly
151.72385°
Mean anomaly
151.3832°
Eccentric anomaly
151.55376°
Mean motion
3.77404 °/min
Orbital period
95.39 mins
BSTAR
0.00069255
Loading maneuver chart data...
Computing Atmospheric mass density...
Loading historical data...
Loading historical data...
Loading historical data...
Loading historical data...
Loading historical data...
Loading historical data...
Loading historical data...

Documentation

Showing up to 5 results
|